Simultaneous Nadir Overpasses (SNOs) Predictions

Prediction of SNOs between METOP-A and TERRA Satellite Orbit:

Table of predicted SNOs for the next 14.0 days since TLE Epoch: 10/26/2015
Index Date (METOP-A) Time (METOP-A) Lat,Lon (METOP-A) SZA (METOP-A ) Date (TERRA) Time (TERRA) Lat,Lon (TERRA) SZA (TERRA ) Distance(km) Time Diff (sec)
1 10/27/2015 00:17:25 81.32,-137.27 97.04 10/27/2015 00:18:08 81.31,-137.23 97.06 1.02 43
2 10/27/2015 01:08:04 -81.32, 30.70 82.87 10/27/2015 01:07:34 -81.32, 30.71 82.89 0.17 30
3 10/29/2015 19:51:41 81.32, -70.55 98.02 10/29/2015 19:52:23 81.31, -70.70 98.02 2.49 42
4 10/29/2015 20:42:21 -81.32, 97.06 81.94 10/29/2015 20:41:50 -81.31, 96.89 81.98 3.22 31
5 11/01/2015 15:25:59 81.32, -4.28 98.91 11/01/2015 15:26:39 81.31, -4.28 98.93 0.43 40
6 11
